"startDT [UTC]","vpos","CH4 [ppm]","stdev(CH4) [ppm]","CO2 [ppm]","stdev(CO2) [ppm]","H2O [ppm]","stdev(H2O)","p_LGR [torr]","T_LGR [C]","mt1_LGR [us]","mt2_LGR [us]","T_ECpre [C]","T_EC1 [C]","T_EC2 [C]","p_inlet [hPa]","p_in [hPa]","p_out [hPa]","T_inlet [C]","RH_inlet [%]","dwpt_inlet [C]","T_vent [C]","RH_vent [%]","dwpt_vent [C]","flow_vent [l min-1]","flow_inlet [l min-1]","dwpt_sample [C]","T_room [C]"
2013-03-04 00:00:00,0.0,1.9648,0.0008,406.59,0.39,4.4,11.0,138.07,30.56,24.66,36.43,0.04,-272.76,-272.76,-46,561,-926,24.4,1.2,-32.9,24.4,1.3,-32.6,5.73,2.37,-28.8,29.2
2013-03-04 00:01:00,0.0,1.9644,0.0009,406.65,0.43,3.6,10.5,138.07,30.56,24.66,36.42,0.04,-272.75,-272.76,-46,561,-927,24.4,1.2,-33.0,24.4,1.3,-32.5,5.73,2.40,-28.8,29.2
2013-03-04 00:02:00,0.0,1.9644,0.0009,406.68,0.48,2.9,11.3,138.07,30.56,24.66,36.43,0.04,-272.75,-272.75,-46,561,-926,24.4,1.2,-33.0,24.4,1.3,-32.6,5.73,2.39,-28.8,29.2
2013-03-04 00:03:00,0.0,1.9645,0.0008,406.63,0.39,6.2,13.6,138.07,30.56,24.66,36.43,0.04,-272.75,-272.75,-46,561,-926,24.4,1.2,-33.0,24.4,1.3,-32.5,5.73,2.35,-28.8,29.1
2013-03-04 00:04:00,0.0,1.9645,0.0010,406.71,0.35,2.3,9.5,138.07,30.56,24.66,36.43,0.04,-272.75,-272.76,-46,561,-926,24.4,1.2,-32.9,24.4,1.3,-32.6,5.73,2.31,-28.8,29.2
2013-03-04 00:05:00,0.0,1.9652,0.0011,406.79,0.41,3.3,10.4,138.07,30.57,24.66,36.43,0.04,-272.76,-272.75,-46,561,-926,24.4,1.2,-33.0,24.4,1.3,-32.6,5.73,2.33,-28.8,29.2
2013-03-04 00:06:00,0.0,1.9640,0.0009,406.61,0.37,3.9,11.5,138.07,30.57,24.66,36.43,0.04,-272.75,-272.75,-46,561,-926,24.4,1.2,-32.9,24.4,1.3,-32.6,5.73,2.38,-28.9,29.2
2013-03-04 00:07:00,0.0,1.9643,0.0007,406.68,0.42,1.4,7.6,138.07,30.57,24.66,36.43,0.04,-272.75,-272.76,-46,561,-926,24.4,1.3,-32.8,24.4,1.3,-32.4,5.73,2.40,-28.9,29.2
2013-03-04 00:08:00,0.0,1.9646,0.0008,406.67,0.40,2.5,8.7,138.07,30.57,24.66,36.43,0.04,-272.75,-272.75,-46,561,-926,24.4,1.3,-32.8,24.4,1.3,-32.4,5.73,2.38,-28.9,29.2
2013-03-04 00:09:00,0.0,1.9649,0.0010,406.67,0.46,1.8,6.8,138.07,30.58,24.66,36.44,0.04,-272.76,-272.76,-46,561,-926,24.4,1.3,-32.6,24.4,1.3,-32.3,5.73,2.33,-28.9,29.1
2013-03-04 00:10:00,0.0,1.9644,0.0009,406.61,0.44,1.9,8.8,138.07,30.58,24.66,36.43,0.04,-272.76,-272.76,-46,561,-926,24.4,1.3,-32.5,24.4,1.3,-32.1,5.73,2.31,-28.9,29.1
2013-03-04 00:11:00,0.0,1.9644,0.0009,406.78,0.43,1.9,8.5,138.07,30.58,24.66,36.43,0.04,-272.75,-272.76,-46,561,-926,24.4,1.3,-32.5,24.4,1.3,-32.1,5.73,2.35,-28.9,29.1
2013-03-04 00:12:00,0.0,1.9645,0.0009,406.75,0.45,2.7,7.8,138.07,30.58,24.66,36.43,0.04,-272.75,-272.75,-46,561,-926,24.4,1.3,-32.6,24.4,1.3,-32.1,5.73,2.40,-28.9,29.1
2013-03-04 00:13:00,0.0,1.9645,0.0009,406.52,0.42,1.7,7.3,138.07,30.58,24.66,36.43,0.04,-272.75,-272.75,-46,561,-926,24.4,1.3,-32.6,24.4,1.3,-32.2,5.73,2.39,-28.9,29.1
2013-03-04 00:14:00,0.0,1.9645,0.0010,406.72,0.42,2.8,10.5,138.07,30.58,24.65,36.43,0.04,-272.76,-272.76,-46,561,-925,24.4,1.3,-32.4,24.4,1.3,-32.1,5.73,2.35,-28.9,29.1
2013-03-04 00:15:00,0.0,1.9638,0.0009,406.77,0.47,1.8,8.0,138.07,30.58,24.66,36.43,0.04,-272.75,-272.75,-46,561,-926,24.4,1.3,-32.3,24.4,1.3,-32.2,5.73,2.31,-28.9,29.1
2013-03-04 00:16:00,0.0,1.9639,0.0010,406.60,0.38,1.9,6.5,138.07,30.58,24.66,36.43,0.04,-272.75,-272.75,-46,560,-926,24.4,1.3,-32.5,24.4,1.3,-32.2,5.73,2.33,-28.9,29.1
2013-03-04 00:17:00,0.0,1.9638,0.0008,406.57,0.37,2.6,8.2,138.07,30.58,24.66,36.44,0.04,-272.75,-272.76,-46,561,-926,24.4,1.3,-32.6,24.4,1.3,-32.1,5.73,2.38,-28.9,29.1
2013-03-04 00:18:00,0.0,1.9640,0.0011,406.58,0.43,5.8,14.5,138.07,30.58,24.66,36.43,0.04,-272.75,-272.75,-46,561,-926,24.4,1.3,-32.5,24.4,1.3,-32.2,5.73,2.40,-28.9,29.1
2013-03-04 00:19:00,0.0,1.9635,0.0009,406.70,0.42,1.8,7.6,138.07,30.58,24.66,36.43,0.04,-272.75,-272.75,-46,561,-926,24.4,1.3,-32.7,24.4,1.3,-32.3,5.73,2.38,-28.9,29.1
2013-03-04 00:20:00,0.0,1.9635,0.0009,406.63,0.40,2.7,9.5,138.07,30.58,24.66,36.43,0.04,-272.76,-272.75,-46,560,-926,24.4,1.3,-32.8,24.4,1.3,-32.5,5.73,2.34,-28.9,29.1
2013-03-04 00:21:00,0.0,1.9635,0.0009,406.75,0.41,5.2,12.2,138.07,30.58,24.66,36.43,0.04,-272.76,-272.75,-46,561,-926,24.4,1.2,-33.0,24.4,1.3,-32.6,5.73,2.31,-28.9,29.1
2013-03-04 00:22:00,0.0,1.9640,0.0011,406.94,0.42,2.1,8.5,138.07,30.58,24.66,36.42,0.04,-272.75,-272.75,-46,561,-926,24.4,1.2,-33.2,24.3,1.3,-32.8,5.73,2.34,-29.0,29.1
2013-03-04 00:23:00,0.0,1.9635,0.0010,406.76,0.42,1.4,7.1,138.07,30.59,24.66,36.43,0.04,-272.75,-272.75,-46,561,-926,24.4,1.2,-33.3,24.3,1.3,-32.7,5.73,2.39,-29.0,29.1
2013-03-04 00:24:00,0.0,1.9637,0.0009,406.65,0.42,3.8,11.5,138.07,30.59,24.66,36.44,0.04,-272.76,-272.76,-46,560,-925,24.4,1.2,-33.3,24.3,1.3,-32.9,5.73,2.40,-28.9,29.1
2013-03-04 00:25:00,0.0,1.9634,0.0008,406.74,0.41,3.3,10.6,138.07,30.59,24.66,36.43,0.04,-272.75,-272.75,-46,560,-926,24.4,1.2,-33.2,24.3,1.3,-32.9,5.73,2.35,-29.0,29.1
2013-03-04 00:26:00,0.0,1.9638,0.0009,406.69,0.35,2.0,9.1,138.07,30.59,24.65,36.43,0.04,-272.76,-272.75,-46,560,-926,24.4,1.2,-33.1,24.3,1.3,-32.8,5.73,2.32,-29.0,29.1
2013-03-04 00:27:00,0.0,1.9637,0.0010,406.87,0.42,5.3,14.3,138.07,30.59,24.66,36.42,0.04,-272.75,-272.75,-46,560,-926,24.4,1.2,-33.0,24.3,1.3,-32.7,5.73,2.32,-29.0,29.1
2013-03-04 00:28:00,0.0,1.9634,0.0011,406.79,0.47,2.4,8.7,138.07,30.59,24.66,36.43,0.04,-272.75,-272.75,-46,560,-926,24.4,1.2,-33.0,24.3,1.3,-32.6,5.73,2.36,-29.0,29.1
2013-03-04 00:29:00,0.0,1.9642,0.0009,406.64,0.43,1.1,6.4,138.07,30.59,24.66,36.43,0.04,-272.75,-272.75,-46,560,-926,24.4,1.2,-33.0,24.3,1.3,-32.7,5.73,2.39,-29.0,29.1
2013-03-04 00:30:00,0.0,1.9640,0.0012,406.67,0.47,2.0,7.7,138.07,30.59,24.66,36.43,0.04,-272.75,-272.76,-46,560,-925,24.3,1.2,-33.0,24.3,1.3,-32.6,5.73,2.38,-29.0,29.1
2013-03-04 00:31:00,0.0,1.9639,0.0009,406.80,0.46,3.1,10.7,138.07,30.59,24.66,36.42,0.04,-272.75,-272.76,-46,560,-926,24.3,1.2,-33.0,24.3,1.3,-32.6,5.73,2.34,-29.0,29.1
2013-03-04 00:32:00,0.0,1.9637,0.0010,406.68,0.47,2.2,7.4,138.07,30.59,24.66,36.43,0.04,-272.75,-272.76,-46,560,-926,24.3,1.2,-33.0,24.3,1.3,-32.6,5.73,2.31,-29.0,29.1
2013-03-04 00:33:00,0.0,1.9640,0.0008,406.68,0.38,1.0,7.0,138.07,30.59,24.66,36.42,0.04,-272.76,-272.75,-46,560,-926,24.4,1.2,-33.0,24.3,1.3,-32.7,5.73,2.33,-29.0,29.1
2013-03-04 00:34:00,0.0,1.9638,0.0010,406.67,0.32,1.4,7.0,138.07,30.60,24.66,36.43,0.04,-272.76,-272.76,-46,560,-926,24.3,1.2,-33.0,24.3,1.3,-32.6,5.73,2.37,-29.0,29.1
2013-03-04 00:35:00,0.0,1.9638,0.0010,406.72,0.41,1.1,7.6,138.07,30.60,24.66,36.43,0.04,-272.75,-272.75,-46,560,-925,24.3,1.3,-32.9,24.3,1.3,-32.5,5.73,2.40,-29.0,29.1
2013-03-04 00:36:00,0.0,1.9640,0.0008,406.77,0.38,2.6,9.6,138.07,30.60,24.65,36.43,0.04,-272.75,-272.75,-46,560,-926,24.3,1.3,-32.7,24.3,1.3,-32.4,5.73,2.37,-28.9,29.1
2013-03-04 00:37:00,0.0,1.9643,0.0010,406.69,0.50,2.0,10.2,138.07,30.60,24.65,36.43,0.04,-272.76,-272.75,-46,560,-926,24.3,1.3,-32.5,24.3,1.4,-32.2,5.73,2.32,-29.0,29.1
2013-03-04 00:38:00,0.0,1.9639,0.0007,406.73,0.46,1.7,7.8,138.07,30.60,24.66,36.43,0.04,-272.75,-272.76,-46,560,-926,24.3,1.3,-32.4,24.3,1.4,-32.0,5.73,2.32,-29.0,29.1
2013-03-04 00:39:00,0.0,1.9636,0.0010,406.77,0.42,1.9,8.5,138.07,30.60,24.66,36.44,0.04,-272.75,-272.75,-46,560,-925,24.3,1.3,-32.2,24.3,1.4,-31.8,5.73,2.36,-29.0,29.1
2013-03-04 00:40:00,0.0,1.9641,0.0009,406.93,0.46,1.1,6.0,138.07,30.61,24.66,36.43,0.04,-272.76,-272.76,-46,560,-925,24.3,1.4,-32.0,24.3,1.4,-31.7,5.73,2.40,-29.0,29.1
2013-03-04 00:41:00,0.0,1.9644,0.0010,406.97,0.49,3.4,11.1,138.07,30.61,24.66,36.43,0.04,-272.76,-272.75,-46,560,-926,24.3,1.4,-31.9,24.3,1.4,-31.6,5.73,2.38,-29.0,29.1
2013-03-04 00:42:00,0.0,1.9648,0.0009,406.86,0.42,1.4,7.6,138.07,30.62,24.66,36.43,0.04,-272.75,-272.75,-46,560,-926,24.3,1.4,-32.0,24.3,1.4,-31.6,5.73,2.33,-29.0,29.1
2013-03-04 00:43:00,0.0,1.9648,0.0009,406.84,0.40,3.5,11.3,138.07,30.62,24.66,36.43,0.04,-272.75,-272.76,-46,560,-926,24.3,1.4,-32.0,24.3,1.5,-31.4,5.73,2.31,-29.0,29.1
2013-03-04 00:44:00,0.0,1.9647,0.0009,406.90,0.47,1.7,8.5,138.07,30.62,24.66,36.43,0.04,-272.75,-272.76,-46,560,-926,24.3,1.4,-32.0,24.3,1.5,-31.4,5.73,2.35,-29.0,29.1
2013-03-04 00:45:00,0.0,1.9644,0.0008,406.90,0.43,-0.7,2.0,138.07,30.62,24.65,36.43,0.04,-272.75,-272.75,-46,560,-925,24.3,1.4,-32.0,24.3,1.4,-31.5,5.73,2.39,-29.0,29.1
2013-03-04 00:46:00,0.0,1.9644,0.0007,406.76,0.40,1.5,7.4,138.07,30.62,24.66,36.43,0.04,-272.75,-272.75,-46,560,-926,24.3,1.4,-31.7,24.3,1.5,-31.4,5.73,2.39,-29.0,29.1
2013-03-04 00:47:00,0.0,1.9643,0.0008,406.81,0.44,1.3,7.0,138.07,30.62,24.66,36.43,0.04,-272.75,-272.75,-46,560,-926,24.3,1.4,-31.7,24.3,1.5,-31.3,5.73,2.35,-29.0,29.0
2013-03-04 00:48:00,0.0,1.9639,0.0010,406.82,0.38,1.6,9.8,138.07,30.62,24.66,36.43,0.04,-272.76,-272.76,-46,560,-926,24.3,1.4,-31.8,24.3,1.5,-31.4,5.73,2.31,-29.0,29.1
2013-03-04 00:49:00,0.0,1.9639,0.0009,406.79,0.42,1.7,7.4,138.07,30.62,24.66,36.43,0.04,-272.75,-272.75,-46,560,-926,24.3,1.4,-31.8,24.3,1.5,-31.4,5.73,2.33,-29.0,29.1
2013-03-04 00:50:00,0.0,1.9637,0.0008,406.83,0.36,2.4,8.3,138.07,30.62,24.66,36.43,0.04,-272.75,-272.75,-46,560,-925,24.3,1.4,-31.8,24.3,1.5,-31.4,5.73,2.38,-29.0,29.1
2013-03-04 00:51:00,0.0,1.9632,0.0010,406.75,0.40,2.5,10.1,138.07,30.62,24.66,36.43,0.04,-272.75,-272.76,-46,560,-925,24.3,1.4,-31.6,24.3,1.5,-31.2,5.73,2.40,-29.0,29.1
2013-03-04 00:52:00,0.0,1.9637,0.0009,406.74,0.42,0.7,7.6,138.07,30.62,24.66,36.43,0.04,-272.75,-272.76,-46,560,-926,24.3,1.4,-31.5,24.3,1.5,-31.2,5.73,2.36,-29.0,29.1
2013-03-04 00:53:00,0.0,1.9635,0.0009,406.79,0.43,2.0,8.2,138.07,30.62,24.66,36.43,0.04,-272.75,-272.75,-46,560,-926,24.3,1.5,-31.4,24.3,1.5,-31.0,5.73,2.32,-29.0,29.1
2013-03-04 00:54:00,0.0,1.9632,0.0012,406.72,0.43,3.6,9.2,138.07,30.62,24.66,36.43,0.04,-272.76,-272.75,-46,560,-926,24.3,1.5,-31.3,24.3,1.5,-31.0,5.73,2.32,-29.0,29.1
2013-03-04 00:55:00,0.0,1.9632,0.0011,406.84,0.48,1.6,6.7,138.07,30.63,24.66,36.43,0.04,-272.75,-272.76,-46,560,-925,24.3,1.5,-31.2,24.3,1.5,-30.9,5.73,2.36,-29.0,29.1
2013-03-04 00:56:00,0.0,1.9629,0.0012,406.80,0.39,0.4,4.5,138.07,30.63,24.66,36.43,0.04,-272.75,-272.75,-46,560,-925,24.3,1.5,-31.2,24.3,1.5,-30.8,5.73,2.40,-29.0,29.0
2013-03-04 00:57:00,0.0,1.9635,0.0008,406.83,0.40,1.2,5.7,138.07,30.63,24.66,36.43,0.04,-272.75,-272.75,-46,560,-926,24.3,1.5,-31.1,24.3,1.6,-30.7,5.73,2.39,-29.0,29.1
2013-03-04 00:58:00,0.0,1.9635,0.0010,406.67,0.46,0.8,7.4,138.07,30.63,24.66,36.43,0.04,-272.75,-272.76,-46,560,-926,24.3,1.5,-31.0,24.3,1.6,-30.7,5.73,2.34,-29.0,29.1
2013-03-04 00:59:00,0.0,1.9636,0.0010,406.86,0.42,2.0,9.8,138.07,30.63,24.66,36.43,0.04,-272.75,-272.75,-46,560,-926,24.3,1.5,-30.9,24.3,1.6,-30.5,5.73,2.31,-29.0,29.0
2013-03-04 01:00:00,0.0,1.9638,0.0009,406.85,0.34,-0.0,4.9,138.07,30.63,24.66,36.43,0.04,-272.75,-272.76,-46,560,-925,24.3,1.6,-30.7,24.3,1.6,-30.4,5.73,2.34,-29.0,29.1
2013-03-04 01:01:00,0.0,1.9637,0.0008,407.16,0.46,3.2,12.7,138.07,30.63,24.66,36.43,0.04,-272.76,-272.76,-46,560,-926,24.3,1.6,-30.5,24.3,1.6,-30.3,5.73,2.39,-29.0,29.0
2013-03-04 01:02:00,0.0,1.9643,0.0009,407.36,0.48,2.1,9.2,138.07,30.63,24.66,36.42,0.04,-272.75,-272.75,-46,560,-926,24.3,1.6,-30.4,24.2,1.6,-30.1,5.73,2.40,-29.0,29.1
2013-03-04 01:03:00,0.0,1.9641,0.0010,406.97,0.45,1.4,8.8,138.07,30.63,24.66,36.43,0.04,-272.75,-272.75,-46,560,-926,24.3,1.6,-30.3,24.3,1.7,-29.8,5.73,2.36,-29.0,29.1
2013-03-04 01:04:00,0.0,1.9638,0.0008,406.72,0.43,0.5,5.4,138.07,30.63,24.66,36.43,0.04,-272.75,-272.75,-46,560,-925,24.3,1.6,-30.2,24.2,1.7,-29.8,5.73,2.32,-29.0,29.0
2013-03-04 01:05:00,0.0,1.9641,0.0008,406.91,0.42,2.9,9.8,138.07,30.63,24.65,36.43,0.04,-272.75,-272.75,-46,560,-925,24.3,1.7,-30.1,24.3,1.7,-29.7,5.73,2.33,-29.0,29.1
2013-03-04 01:06:00,0.0,1.9639,0.0008,406.75,0.39,0.9,5.3,138.07,30.63,24.66,36.43,0.04,-272.75,-272.75,-46,560,-925,24.3,1.7,-30.1,24.2,1.7,-29.7,5.73,2.37,-29.0,29.0
2013-03-04 01:07:00,0.0,1.9639,0.0009,407.00,0.49,5.8,14.9,138.07,30.63,24.66,36.43,0.04,-272.76,-272.76,-46,560,-926,24.3,1.7,-30.0,24.2,1.7,-29.6,5.73,2.40,-29.0,29.0
2013-03-04 01:08:00,0.0,1.9642,0.0010,406.71,0.43,2.9,9.8,138.07,30.63,24.66,36.43,0.04,-272.75,-272.75,-46,560,-926,24.3,1.7,-30.1,24.3,1.7,-29.6,5.73,2.38,-29.0,29.1
2013-03-04 01:09:00,0.0,1.9639,0.0009,406.96,0.34,2.3,9.1,138.07,30.63,24.66,36.44,0.04,-272.75,-272.75,-46,560,-925,24.3,1.6,-30.1,24.3,1.7,-29.8,5.73,2.34,-29.0,29.0
2013-03-04 01:10:00,0.0,1.9642,0.0009,406.93,0.39,1.1,6.7,138.07,30.63,24.65,36.43,0.04,-272.75,-272.75,-46,560,-925,24.3,1.6,-30.2,24.2,1.7,-29.9,5.73,2.31,-29.0,29.1
2013-03-04 01:11:00,0.0,1.9639,0.0009,407.06,0.45,0.6,6.8,138.07,30.64,24.66,36.43,0.04,-272.75,-272.75,-46,560,-926,24.3,1.6,-30.4,24.2,1.7,-30.0,5.73,2.34,-29.0,29.0
2013-03-04 01:12:00,0.0,1.9639,0.0010,407.09,0.42,0.7,6.0,138.07,30.64,24.66,36.42,0.04,-272.75,-272.75,-46,560,-926,24.3,1.6,-30.5,24.2,1.6,-30.2,5.73,2.39,-29.0,29.0
2013-03-04 01:13:00,0.0,1.9637,0.0008,406.87,0.39,2.0,8.0,138.07,30.64,24.66,36.43,0.04,-272.75,-272.75,-46,560,-926,24.3,1.6,-30.6,24.2,1.6,-30.3,5.73,2.40,-29.0,29.1
2013-03-04 01:14:00,0.0,1.9641,0.0009,406.67,0.30,2.2,9.3,138.07,30.64,24.66,36.43,0.04,-272.75,-272.76,-46,560,-925,24.3,1.5,-30.8,24.2,1.6,-30.5,5.73,2.34,-29.0,29.0
2013-03-04 01:15:00,0.0,1.9639,0.0011,406.84,0.47,2.5,8.4,138.07,30.64,24.66,36.42,0.04,-272.75,-272.75,-46,560,-925,24.3,1.5,-31.0,24.3,1.6,-30.6,5.73,2.31,-29.0,29.1
2013-03-04 01:16:00,0.0,1.9643,0.0008,407.05,0.51,3.0,13.9,138.07,30.64,24.66,36.43,0.04,-272.75,-272.75,-46,560,-925,24.3,1.5,-31.1,24.2,1.6,-30.7,5.73,2.33,-29.0,29.0
2013-03-04 01:17:00,0.0,1.9647,0.0008,407.05,0.46,2.5,9.7,138.07,30.64,24.65,36.43,0.04,-272.76,-272.75,-46,560,-926,24.3,1.5,-31.2,24.2,1.5,-30.8,5.73,2.38,-29.0,29.1
2013-03-04 01:18:00,0.0,1.9654,0.0010,407.17,0.37,1.4,8.7,138.07,30.64,24.66,36.43,0.04,-272.75,-272.76,-46,560,-926,24.3,1.5,-31.1,24.2,1.5,-30.9,5.73,2.39,-28.9,29.1
2013-03-04 01:19:00,0.0,1.9654,0.0010,407.05,0.44,2.7,10.5,138.07,30.64,24.66,36.43,0.04,-272.76,-272.75,-46,560,-925,24.3,1.5,-31.2,24.3,1.5,-30.8,5.73,2.37,-28.9,29.0
2013-03-04 01:20:00,0.0,1.9644,0.0009,406.91,0.42,1.0,6.9,138.07,30.64,24.66,36.43,0.04,-272.75,-272.76,-46,560,-925,24.3,1.5,-31.2,24.2,1.5,-30.8,5.73,2.32,-28.9,29.1
2013-03-04 01:21:00,0.0,1.9661,0.0011,407.08,0.43,2.9,11.1,138.07,30.64,24.66,36.43,0.04,-272.76,-272.75,-46,560,-925,24.3,1.5,-31.2,24.2,1.5,-30.8,5.73,2.31,-28.9,29.1
2013-03-04 01:22:00,0.0,1.9660,0.0010,407.09,0.48,1.6,9.0,138.07,30.64,24.66,36.44,0.04,-272.75,-272.75,-46,560,-926,24.3,1.5,-31.2,24.3,1.5,-30.8,5.73,2.36,-28.9,29.1
2013-03-04 01:23:00,0.0,1.9663,0.0010,407.17,0.41,1.5,7.4,138.07,30.64,24.66,36.43,0.04,-272.75,-272.75,-46,560,-926,24.3,1.5,-31.1,24.3,1.6,-30.6,5.73,2.40,-28.9,29.1
2013-03-04 01:24:00,0.0,1.9663,0.0008,407.31,0.35,6.2,14.1,138.07,30.64,24.66,36.43,0.04,-272.76,-272.76,-46,560,-926,24.3,1.5,-31.0,24.3,1.6,-30.6,5.73,2.38,-28.9,29.1
2013-03-04 01:25:00,0.0,1.9661,0.0010,407.04,0.45,3.1,9.3,138.07,30.64,24.66,36.44,0.04,-272.76,-272.75,-46,560,-925,24.3,1.5,-31.0,24.3,1.6,-30.7,5.73,2.32,-28.9,29.1
2013-03-04 01:26:00,0.0,1.9664,0.0010,407.10,0.36,2.0,8.4,138.07,30.64,24.65,36.43,0.04,-272.75,-272.75,-46,560,-925,24.3,1.5,-30.9,24.3,1.6,-30.6,5.73,2.31,-28.9,29.1
2013-03-04 01:27:00,0.0,1.9659,0.0009,407.08,0.42,2.7,9.3,138.07,30.64,24.66,36.43,0.04,-272.75,-272.76,-46,560,-925,24.3,1.5,-30.9,24.3,1.6,-30.5,5.73,2.35,-28.8,29.1
2013-03-04 01:28:00,0.0,1.9665,0.0011,407.08,0.43,4.5,9.2,138.07,30.65,24.66,36.43,0.04,-272.76,-272.75,-46,560,-926,24.3,1.5,-31.0,24.3,1.6,-30.6,5.73,2.39,-28.8,29.1
2013-03-04 01:29:00,0.0,1.9666,0.0009,407.16,0.45,3.0,10.6,138.07,30.65,24.66,36.43,0.04,-272.75,-272.75,-46,560,-926,24.3,1.5,-30.9,24.3,1.6,-30.6,5.73,2.38,-28.8,29.1
2013-03-04 01:30:00,0.0,1.9664,0.0010,407.24,0.38,3.4,11.1,138.07,30.65,24.66,36.42,0.04,-272.75,-272.75,-46,560,-926,24.3,1.5,-31.1,24.3,1.6,-30.6,5.73,2.32,-28.8,29.1
2013-03-04 01:31:00,0.0,1.9664,0.0008,407.11,0.40,2.8,8.2,138.07,30.65,24.65,36.43,0.04,-272.75,-272.76,-46,560,-926,24.3,1.5,-31.0,24.3,1.6,-30.6,5.73,2.31,-28.8,29.1
2013-03-04 01:32:00,0.0,1.9666,0.0007,407.11,0.42,1.5,5.8,138.07,30.65,24.65,36.43,0.04,-272.75,-272.76,-46,560,-926,24.3,1.5,-31.0,24.3,1.6,-30.6,5.73,2.35,-28.8,29.1
2013-03-04 01:33:00,0.0,1.9665,0.0010,407.19,0.34,3.6,9.5,138.07,30.65,24.65,36.43,0.04,-272.76,-272.75,-46,560,-925,24.3,1.5,-30.9,24.3,1.6,-30.5,5.73,2.39,-28.8,29.1
2013-03-04 01:34:00,0.0,1.9657,0.0008,407.11,0.39,3.6,9.8,138.07,30.65,24.66,36.43,0.04,-272.75,-272.75,-46,560,-925,24.3,1.5,-30.9,24.3,1.6,-30.4,5.73,2.39,-28.8,29.2
2013-03-04 01:35:00,0.0,1.9653,0.0009,407.00,0.44,1.9,9.1,138.07,30.65,24.66,36.43,0.04,-272.76,-272.75,-47,560,-925,24.3,1.5,-31.0,24.3,1.6,-30.6,5.73,2.34,-28.7,29.2
2013-03-04 01:36:00,0.0,1.9661,0.0010,407.06,0.39,3.9,12.3,138.07,30.65,24.66,36.43,0.04,-272.76,-272.75,-46,560,-926,24.4,1.5,-30.9,24.3,1.6,-30.6,5.73,2.31,-28.7,29.2
2013-03-04 01:37:00,0.0,1.9663,0.0009,407.05,0.41,2.7,9.5,138.07,30.65,24.66,36.43,0.04,-272.75,-272.76,-46,560,-926,24.3,1.5,-31.0,24.3,1.6,-30.6,5.73,2.32,-28.7,29.1
2013-03-04 01:38:00,0.0,1.9658,0.0010,407.00,0.41,4.9,13.1,138.07,30.65,24.66,36.43,0.04,-272.76,-272.76,-46,560,-926,24.3,1.5,-31.2,24.3,1.6,-30.6,5.73,2.37,-28.7,29.2
2013-03-04 01:39:00,0.0,1.9658,0.0008,407.00,0.41,1.9,7.2,138.07,30.65,24.66,36.43,0.04,-272.75,-272.75,-46,560,-925,24.4,1.5,-31.1,24.3,1.5,-30.8,5.73,2.40,-28.7,29.1
2013-03-04 01:40:00,0.0,1.9657,0.0012,407.00,0.39,2.0,9.1,138.07,30.65,24.66,36.43,0.04,-272.75,-272.75,-46,560,-925,24.3,1.5,-31.2,24.3,1.5,-30.8,5.73,2.37,-28.7,29.1
2013-03-04 01:41:00,0.0,1.9657,0.0008,407.08,0.49,5.1,12.0,138.07,30.65,24.66,36.43,0.04,-272.75,-272.76,-46,560,-925,24.4,1.5,-31.3,24.3,1.5,-30.9,5.73,2.32,-28.7,29.2
2013-03-04 01:42:00,0.0,1.9656,0.0009,407.01,0.36,3.0,10.2,138.07,30.65,24.66,36.43,0.04,-272.75,-272.76,-46,560,-926,24.3,1.5,-31.4,24.3,1.5,-31.0,5.73,2.31,-28.7,29.2
2013-03-04 01:43:00,0.0,1.9659,0.0009,407.17,0.41,6.2,14.1,138.07,30.66,24.66,36.42,0.04,-272.75,-272.76,-47,560,-926,24.4,1.5,-31.3,24.3,1.5,-30.9,5.73,2.37,-28.7,29.2
2013-03-04 01:44:00,0.0,1.9663,0.0010,407.02,0.44,2.6,9.9,138.07,30.66,24.66,36.42,0.04,-272.75,-272.75,-47,560,-925,24.4,1.5,-31.3,24.3,1.5,-30.9,5.73,2.40,-28.7,29.2
2013-03-04 01:45:00,0.0,1.9660,0.0009,407.12,0.41,5.1,12.4,138.07,30.66,24.66,36.43,0.04,-272.76,-272.76,-46,561,-925,24.4,1.5,-31.3,24.3,1.5,-30.8,5.73,2.38,-28.7,29.2
2013-03-04 01:46:00,0.0,1.9656,0.0009,407.04,0.41,4.3,12.2,138.07,30.66,24.66,36.43,0.04,-272.76,-272.75,-46,560,-925,24.4,1.5,-31.1,24.3,1.5,-30.8,5.73,2.33,-28.7,29.1
2013-03-04 01:47:00,0.0,1.9658,0.0011,407.04,0.42,3.1,9.6,138.07,30.66,24.66,36.43,0.04,-272.75,-272.76,-46,561,-926,24.4,1.5,-31.2,24.3,1.5,-30.9,5.73,2.31,-28.7,29.2
2013-03-04 01:48:00,0.0,1.9661,0.0009,407.09,0.42,3.4,9.1,138.07,30.66,24.65,36.43,0.04,-272.75,-272.76,-46,561,-926,24.4,1.4,-31.4,24.3,1.5,-31.0,5.73,2.34,-28.6,29.2
2013-03-04 01:49:00,0.0,1.9661,0.0010,407.13,0.35,4.7,13.1,138.07,30.66,24.66,36.43,0.04,-272.76,-272.75,-46,561,-925,24.4,1.4,-31.6,24.3,1.5,-31.2,5.73,2.39,-28.7,29.1
2013-03-04 01:50:00,0.0,1.9663,0.0009,407.00,0.41,4.2,11.8,138.07,30.66,24.66,36.42,0.04,-272.75,-272.75,-46,561,-925,24.4,1.4,-31.9,24.3,1.4,-31.4,5.73,2.39,-28.6,29.1
2013-03-04 01:51:00,0.0,1.9662,0.0009,407.09,0.40,4.7,13.3,138.07,30.66,24.66,36.43,0.04,-272.75,-272.75,-47,561,-925,24.4,1.4,-31.9,24.3,1.4,-31.8,5.73,2.36,-28.6,29.1
2013-03-04 01:52:00,0.0,1.9661,0.0009,407.29,0.41,5.2,13.9,138.07,30.67,24.66,36.43,0.04,-272.75,-272.75,-47,561,-926,24.4,1.4,-31.9,24.3,1.4,-31.8,5.73,2.32,-28.7,29.1
2013-03-04 01:53:00,0.0,1.9664,0.0008,407.22,0.43,5.8,11.8,138.07,30.67,24.66,36.43,0.04,-272.75,-272.75,-46,561,-926,24.4,1.4,-31.9,24.3,1.4,-31.5,5.73,2.32,-28.6,29.1
2013-03-04 01:54:00,0.0,1.9666,0.0009,407.40,0.38,1.9,8.8,138.07,30.67,24.66,36.42,0.04,-272.75,-272.75,-46,561,-925,24.4,1.4,-31.9,24.3,1.4,-31.6,5.73,2.36,-28.7,29.1
2013-03-04 01:55:00,0.0,1.9661,0.0009,407.25,0.42,5.8,13.0,138.07,30.66,24.66,36.43,0.04,-272.75,-272.76,-46,561,-925,24.4,1.4,-31.8,24.3,1.4,-31.5,5.73,2.39,-28.6,29.2
2013-03-04 01:56:00,0.0,1.9657,0.0009,407.21,0.42,0.5,5.2,138.07,30.67,24.66,36.43,0.04,-272.75,-272.75,-46,561,-925,24.4,1.4,-31.7,24.3,1.5,-31.4,5.73,2.39,-28.6,29.2
2013-03-04 01:57:00,0.0,1.9662,0.0010,407.19,0.44,3.1,10.2,138.07,30.67,24.66,36.43,0.04,-272.75,-272.75,-46,561,-926,24.4,1.4,-31.6,24.3,1.5,-31.3,5.73,2.34,-28.6,29.2
2013-03-04 01:58:00,0.0,1.9662,0.0010,407.16,0.43,3.4,10.9,138.07,30.67,24.66,36.43,0.04,-272.75,-272.75,-47,561,-926,24.4,1.4,-31.5,24.3,1.5,-31.1,5.73,2.31,-28.6,29.2
2013-03-04 01:59:00,0.0,1.9661,0.0010,407.14,0.38,2.1,9.1,138.07,30.67,24.66,36.42,0.04,-272.75,-272.76,-47,561,-926,24.4,1.5,-31.4,24.3,1.5,-31.0,5.73,2.32,-28.6,29.2
2013-03-04 02:00:00,0.0,1.9669,0.0010,407.34,0.35,4.6,13.7,138.07,30.67,24.66,36.43,0.04,-272.75,-272.75,-47,561,-925,24.4,1.5,-31.2,24.3,1.5,-30.9,5.73,2.36,-28.6,29.2
2013-03-04 02:01:00,0.0,1.9667,0.0009,407.10,0.41,3.9,12.3,138.07,30.67,24.66,36.43,0.04,-272.75,-272.75,-46,561,-925,24.4,1.5,-31.1,24.3,1.5,-30.8,5.73,2.39,-28.6,29.2
2013-03-04 02:02:00,0.0,1.9668,0.0008,406.97,0.41,4.6,12.5,138.07,30.67,24.66,36.43,0.04,-272.75,-272.76,-46,561,-926,24.4,1.5,-31.1,24.3,1.6,-30.6,5.73,2.38,-28.6,29.2
2013-03-04 02:03:00,0.0,1.9661,0.0011,406.95,0.46,3.2,9.9,138.07,30.67,24.66,36.43,0.04,-272.75,-272.75,-46,561,-926,24.4,1.5,-30.9,24.3,1.6,-30.6,5.73,2.34,-28.6,29.1
2013-03-04 02:04:00,0.0,1.9646,0.0008,407.03,0.45,5.1,13.4,138.07,30.67,24.66,36.43,0.04,-272.75,-272.75,-46,561,-926,24.4,1.5,-31.0,24.3,1.6,-30.5,5.73,2.31,-28.6,29.2
2013-03-04 02:05:00,0.0,1.9652,0.0009,406.93,0.39,2.7,8.8,138.07,30.67,24.66,36.43,0.04,-272.76,-272.76,-46,561,-925,24.4,1.5,-30.8,24.3,1.6,-30.4,5.73,2.32,-28.6,29.2
2013-03-04 02:06:00,0.0,1.9668,0.0009,406.92,0.36,7.6,16.3,138.07,30.67,24.66,36.43,0.04,-272.75,-272.75,-46,561,-925,24.4,1.5,-30.8,24.3,1.6,-30.4,5.73,2.37,-28.6,29.2
2013-03-04 02:07:00,0.0,1.9662,0.0010,406.90,0.44,3.3,8.8,138.07,30.67,24.66,36.43,0.04,-272.75,-272.75,-47,561,-926,24.4,1.6,-30.6,24.3,1.6,-30.2,5.73,2.40,-28.6,29.2
2013-03-04 02:08:00,0.0,1.9659,0.0011,407.01,0.39,4.5,12.4,138.07,30.67,24.65,36.43,0.04,-272.75,-272.75,-47,561,-926,24.4,1.6,-30.6,24.3,1.6,-30.3,5.73,2.38,-28.6,29.1
2013-03-04 02:09:00,0.0,1.9651,0.0008,407.12,0.35,3.5,12.7,138.07,30.67,24.66,36.42,0.04,-272.75,-272.76,-47,561,-926,24.4,1.6,-30.5,24.3,1.6,-30.2,5.73,2.35,-28.6,29.1
2013-03-04 02:10:00,0.0,1.9650,0.0009,407.15,0.44,2.5,9.1,138.07,30.67,24.66,36.43,0.04,-272.75,-272.75,-47,561,-925,24.4,1.6,-30.4,24.3,1.7,-30.0,5.73,2.31,-28.6,29.1
2013-03-04 02:11:00,0.0,1.9642,0.0009,407.28,0.40,6.2,13.6,138.07,30.67,24.66,36.43,0.04,-272.75,-272.75,-47,561,-925,24.4,1.6,-30.4,24.3,1.7,-30.0,5.73,2.32,-28.6,29.2
2013-03-04 02:12:00,0.0,1.9647,0.0009,407.11,0.43,6.5,16.5,138.07,30.67,24.66,36.42,0.04,-272.76,-272.76,-46,561,-926,24.4,1.6,-30.2,24.3,1.7,-29.9,5.73,2.36,-28.6,29.2
2013-03-04 02:13:00,0.0,1.9656,0.0009,406.90,0.45,8.9,17.5,138.07,30.67,24.66,36.43,0.04,-272.75,-272.75,-46,561,-926,24.4,1.6,-30.1,24.4,1.7,-29.8,5.73,2.39,-28.6,29.2
2013-03-04 02:14:00,0.0,1.9660,0.0011,406.71,0.42,3.1,9.1,138.07,30.67,24.66,36.43,0.04,-272.75,-272.75,-46,561,-926,24.4,1.7,-30.0,24.3,1.7,-29.6,5.73,2.38,-28.6,29.2
2013-03-04 02:15:00,0.0,1.9662,0.0009,406.86,0.39,3.8,11.2,138.07,30.67,24.66,36.43,0.04,-272.76,-272.75,-46,561,-925,24.4,1.7,-30.0,24.3,1.7,-29.6,5.73,2.34,-28.6,29.1
2013-03-04 02:16:00,0.0,1.9664,0.0009,406.94,0.40,3.7,12.0,138.07,30.67,24.66,36.43,0.04,-272.75,-272.75,-46,561,-925,24.4,1.6,-30.1,24.3,1.7,-29.7,5.73,2.31,-28.6,29.1
2013-03-04 02:17:00,0.0,1.9668,0.0008,407.14,0.42,7.5,16.7,138.07,30.67,24.66,36.42,0.04,-272.76,-272.75,-47,561,-925,24.4,1.6,-30.3,24.3,1.7,-30.0,5.73,2.32,-28.6,29.2
2013-03-04 02:18:00,0.0,1.9669,0.0010,407.06,0.43,4.6,12.8,138.07,30.67,24.66,36.43,0.04,-272.75,-272.75,-47,561,-926,24.4,1.6,-30.7,24.3,1.6,-30.4,5.73,2.36,-28.6,29.1
2013-03-04 02:19:00,0.0,1.9667,0.0009,407.15,0.40,8.1,15.7,138.07,30.67,24.66,36.42,0.04,-272.75,-272.75,-47,561,-926,24.4,1.5,-31.0,24.3,1.6,-30.5,5.73,2.39,-28.6,29.1